Skip Page Navigation
NASA JPL Caltech
NASA Logo - Jet Propulsion Laboratory + View the NASA Portal
+ Near-Earth Object (NEO) Program
Search JPL
JPL Home Earth Solar System Stars & Galaxies Technology
JPL Solar System Dynamics
BODIES ORBITS EPHEMERIDES TOOLS PHYSICAL DATA DISCOVERY FAQ SITE MAP
JPL Small-Body Database Browser
Search: [ help ]  
99907 (1989 VA)
Classification: Aten [NEO]          SPK-ID: 2099907
Ephemeris | Orbit Diagram | Orbital Elements | Physical Parameters | Discovery Circumstances | Close-Approach Data ]

[ hide orbit diagram ]
Orbit Diagram
Note: Make sure you have Java enabled on your browser to see the applet. This applet is provided as a 3D orbit visualization tool. The applet was implemented using 2-body methods, and hence should not be used for determining accurate long-term trajectories (over several years or decades) or planetary encounter circumstances. For accurate long-term ephemerides, please instead use our Horizons system.
Orbit Viewer

Additional Notes: the orbits shown in the applet are color coded. The planets are white lines, and the asteroid/comet is a blue line. The bright white line indicates the portion of the orbit that is above the ecliptic plane, and the darker portion is below the ecliptic plane. Likewise for the asteroid/comet orbit, the light blue indicates the portion above the ecliptic plane, and the dark blue the portion below the ecliptic plane.

Orbit Viewer applet originally written and kindly provided by Osamu Ajiki (AstroArts), and further modified by Ron Baalke (JPL).


Orbital Elements at Epoch 2456400.5 (2013-Apr-18.0) TDB
Reference: JPL 76 (heliocentric ecliptic J2000)
 Element Value Uncertainty (1-sigma)   Units 
e .5947248825403444 1.0596e-07  
a .7284585063096886 1.3217e-09 AU
q .2952261067091443 7.7115e-08 AU
i 28.79990304316486 1.7379e-05 deg
node 225.6089016290026 6.1749e-06 deg
peri 2.838696501191709 1.4293e-05 deg
M 62.74312094336453 4.2557e-05 deg
tp 2456360.920594012089
(2013-Mar-09.42059401)
2.6781e-05 JED
period 227.0939975795817
0.62
6.1803e-07
1.692e-09
d
yr
n 1.585246654852 4.3142e-09 deg/d
Q 1.161690905910233 2.1077e-09 AU
  Orbit Determination Parameters
   # obs. used (total)      546  
   data-arc span      8453 days (23.14 yr)  
   first obs. used      1989-11-02  
   last obs. used      2012-12-24  
   planetary ephem.      DE405  
   SB-pert. ephem.      SB405-CPV-2  
   condition code      0  
   fit RMS      .54592  
   data source      ORB  
   producer      Otto Matic  
   solution date      2013-Apr-29 15:45:56  

Additional Information
 Earth MOID = .154849 AU 
 T_jup = 7.670 
[ show covariance matrix ]

Ephemeris | Orbit Diagram | Orbital Elements | Physical Parameters | Discovery Circumstances | Close-Approach Data ]

Physical Parameter Table
Parameter Symbol Value Units Sigma Reference Notes
absolute magnitude H 17.781 mag .57739 76 autocmod 2.5c
diameter diameter 1.4 km n/a Hazards due to Comets and Asteroids (1994), Ed. T. Gehrels, pp.540-543 based on assumed medium albedo (0.15)
rotation period rot_per 2.514 h n/a Asteroid Lightcurve DataBase (Rev. 2013-May-01) Published Reference List:
[Pravec, P.; Wolf, M.; Sarounova, L.; Mottola, S.; et al. (1997) Icarus 130, 275-286.]
SMASSII spectral type spec_B Sq   n/a EAR-A-5-DDR-TAXONOMY-V4.0 based on a high-resolution spectrum by Xu et al. (1995) or Bus and Binzel (2002)

99907 (1989 VA)          Discovered 1989-Nov-02 by Shoemaker, C. S. at Palomar (675)
Reference: 20050622/Numbers.arcLast Updated: 2005-06-27

[ show close-approach data ]
Ephemeris | Orbit Diagram | Orbital Elements | Physical Parameters | Discovery Circumstances | Close-Approach Data ]
ABOUT SSD CREDITS/AWARDS PRIVACY/COPYRIGHT GLOSSARY LINKS
FirstGov 2013-Jun-18 21:44 UT
(server date/time)  
NASA Home Page
Site Manager:   Donald K. Yeomans
Webmaster  Alan B. Chamberlin